Simultaneous Nadir Overpasses (SNOs) Predictions

Prediction of SNOs between NPP and TERRA Satellite Orbit:

Table of predicted SNOs for the next 14.0 days since TLE Epoch: 11/19/2011
Index Date (NPP) Time (NPP) Lat,Lon (NPP) SZA (NPP ) Date (TERRA) Time (TERRA) Lat,Lon (TERRA) SZA (TERRA ) Distance(km) Time Diff (sec)
1 11/21/2011 08:59:19 -69.16,-137.06 91.09 11/21/2011 09:00:29 -69.03,-135.74 91.20 54.30 70
2 11/21/2011 09:49:53 68.44, 31.21 88.21 11/21/2011 09:50:05 68.42, 31.15 88.19 3.24 12
3 11/21/2011 10:40:35 -68.33,-161.34 91.89 11/21/2011 10:39:34 -68.36,-161.30 91.87 3.30 61
4 11/24/2011 00:26:41 68.53, 171.88 88.86 11/24/2011 00:27:34 68.51, 171.88 88.84 2.21 53
5 11/24/2011 01:17:22 -68.39, -20.61 91.28 11/24/2011 01:17:03 -68.40, -20.62 91.27 1.40 19
6 11/24/2011 02:07:52 67.41, 147.89 87.77 11/24/2011 02:06:45 67.45, 145.91 87.77 84.46 67
7 11/26/2011 15:04:14 68.51, -47.50 89.35 11/26/2011 15:05:03 68.51, -47.49 89.35 0.19 49
8 11/26/2011 15:54:57 -68.38, 119.99 90.78 11/26/2011 15:54:33 -68.40, 120.00 90.76 2.38 24
9 11/29/2011 04:51:52 -68.76, -74.73 89.94 11/29/2011 04:53:04 -68.70, -74.28 90.00 19.78 72
10 11/29/2011 05:42:34 68.39, 93.06 89.70 11/29/2011 05:42:34 68.41, 93.02 89.72 3.14 0
11 11/29/2011 06:33:18 -68.27, -99.48 90.42 11/29/2011 06:32:05 -68.25, -99.55 90.45 3.67 73
12 12/01/2011 18:40:10 68.53,-101.53 90.25 12/01/2011 18:41:08 68.50,-101.52 90.22 2.90 58
13 12/01/2011 19:30:54 -68.37, 65.99
